| time (UTC) | temp F | wind direction | speed MPH | gust MPH | rain 1hr in | rain 24hr in | rain mn in | humidity % | barometer mb |
| 20260505002710 | 45 | 309 | 3.0 | 4.0 | 0.02 | 0.58 | 0.30 | 89 | 1011.2 |
| 20260505001731 | 45 | 23 | 0.0 | 2.0 | 0.02 | 0.58 | 0.30 | 89 | 1011.7 |
| 20260505000710 | 45 | 0.0 | 2.0 | 0.02 | 0.58 | 0.30 | 89 | 1011.9 | |
| 20260504235710 | 45 | 137 | 1.0 | 2.0 | 0.04 | 0.58 | 0.30 | 90 | 1012.1 |
| 20260504234710 | 45 | 67 | 0.0 | 2.0 | 0.03 | 0.57 | 0.29 | 90 | 1012.3 |
| 20260504233711 | 46 | 315 | 1.0 | 3.0 | 0.03 | 0.57 | 0.29 | 89 | 1012.5 |
| 20260504232711 | 45 | 345 | 3.0 | 6.0 | 0.02 | 0.56 | 0.28 | 90 | 1012.6 |
| 20260504231710 | 45 | 0.0 | 0.0 | 0.02 | 0.56 | 0.28 | 89 | 1012.6 | |
| 20260504230711 | 45 | 67 | 0.0 | 1.0 | 0.02 | 0.56 | 0.28 | 89 | 1012.6 |
| 20260504225710 | 45 | 0.0 | 1.0 | 0.00 | 0.54 | 0.26 | 89 | 1012.9 | |
| 20260504224710 | 46 | 292 | 1.0 | 4.0 | 0.00 | 0.54 | 0.26 | 89 | 1012.9 |
| 20260504223711 | 46 | 322 | 1.0 | 3.0 | 0.00 | 0.54 | 0.26 | 90 | 1013.3 |
| 20260504222710 | 46 | 0.0 | 0.0 | 0.00 | 0.54 | 0.26 | 90 | 1013.1 | |
| 20260504221711 | 47 | 180 | 0.0 | 4.0 | 0.00 | 0.54 | 0.26 | 90 | 1013.3 |
| 20260504220711 | 46 | 0.0 | 0.0 | 0.00 | 0.54 | 0.26 | 90 | 1013.5 | |
| 20260504215731 | 46 | 315 | 1.0 | 3.0 | 0.00 | 0.54 | 0.26 | 90 | 1013.5 |
| 20260504214710 | 45 | 84 | 1.0 | 2.0 | 0.00 | 0.54 | 0.26 | 90 | 1013.6 |
| 20260504213711 | 45 | 112 | 2.0 | 4.0 | 0.00 | 0.54 | 0.26 | 91 | 1014.1 |
| 20260504212711 | 45 | 112 | 0.0 | 2.0 | 0.00 | 0.54 | 0.26 | 91 | 1014.3 |
| 20260504211710 | 45 | 0.0 | 0.0 | 0.00 | 0.54 | 0.26 | 91 | 1014.3 | |
| 20260504210730 | 44 | 180 | 1.0 | 2.0 | 0.00 | 0.54 | 0.26 | 91 | 1014.3 |
| 20260504205711 | 44 | 360 | 0.0 | 2.0 | 0.00 | 0.54 | 0.26 | 92 | 1014.6 |
| 20260504204730 | 44 | 0.0 | 0.0 | 0.00 | 0.54 | 0.26 | 92 | 1015.0 | |
| 20260504203710 | 44 | 112 | 0.0 | 2.0 | 0.00 | 0.54 | 0.26 | 92 | 1015.0 |
| 20260504202710 | 44 | 0.0 | 0.0 | 0.00 | 0.54 | 0.26 | 92 | 1015.2 | |
| 20260504201732 | 44 | 67 | 0.0 | 1.0 | 0.00 | 0.54 | 0.26 | 92 | 1015.3 |
| 20260504200710 | 43 | 0.0 | 0.0 | 0.00 | 0.54 | 0.26 | 93 | 1015.8 | |
| 20260504195710 | 42 | 0.0 | 0.0 | 0.00 | 0.54 | 0.26 | 93 | 1016.2 | |
| 20260504194710 | 41 | 0.0 | 0.0 | 0.00 | 0.54 | 0.26 | 93 | 1016.5 | |
| 20260504193710 | 41 | 0.0 | 0.0 | 0.00 | 0.54 | 0.26 | 93 | 1016.7 | |
| 20260504192710 | 41 | 58 | 1.0 | 1.0 | 0.00 | 0.54 | 0.26 | 93 | 1016.7 |
| 20260504191710 | 40 | 0.0 | 0.0 | 0.00 | 0.54 | 0.26 | 93 | 1016.9 | |
| 20260504190710 | 40 | 0.0 | 0.0 | 0.00 | 0.54 | 0.26 | 93 | 1017.0 | |
| 20260504185710 | 40 | 0.0 | 0.0 | 0.00 | 0.54 | 0.26 | 93 | 1017.4 | |
| 20260504184711 | 40 | 90 | 0.0 | 1.0 | 0.00 | 0.54 | 0.26 | 93 | 1017.4 |
| 20260504183710 | 39 | 315 | 1.0 | 2.0 | 0.00 | 0.54 | 0.26 | 93 | 1017.4 |
| 20260504182811 | 39 | 0.0 | 0.0 | 0.00 | 0.54 | 0.26 | 93 | 1017.4 | |
| 20260504181710 | 39 | 0.0 | 0.0 | 0.00 | 0.54 | 0.26 | 93 | 1017.9 | |
| 20260504180730 | 39 | 0.0 | 0.0 | 0.01 | 0.54 | 0.26 | 93 | 1017.7 | |
| 20260504175731 | 39 | 337 | 2.0 | 2.0 | 0.01 | 0.54 | 0.26 | 93 | 1018.0 |
| 20260504174710 | 38 | 0.0 | 0.0 | 0.02 | 0.54 | 0.26 | 93 | 1018.0 | |
| 20260504173731 | 38 | 0.0 | 0.0 | 0.02 | 0.54 | 0.26 | 93 | 1018.2 | |
| 20260504172710 | 38 | 0.0 | 0.0 | 0.02 | 0.54 | 0.26 | 93 | 1018.4 | |
| 20260504171710 | 38 | 0.0 | 0.0 | 0.02 | 0.54 | 0.26 | 93 | 1018.2 | |
| 20260504170710 | 38 | 0.0 | 0.0 | 0.03 | 0.53 | 0.25 | 93 | 1018.4 | |
| 20260504150731 | 36 | 0.0 | 0.0 | 0.02 | 0.48 | 0.20 | 93 | 1019.4 | |
| 20260504140710 | 36 | 0.0 | 0.0 | 0.01 | 0.46 | 0.18 | 93 | 1019.7 | |
| 20260504130711 | 36 | 0.0 | 0.0 | 0.02 | 0.45 | 0.17 | 93 | 1019.7 | |
| 20260504110712 | 36 | 0.0 | 0.0 | 0.02 | 0.40 | 0.12 | 92 | 1020.4 | |
| 20260504081713 | 37 | 0.0 | 0.0 | 0.06 | 0.30 | 0.02 | 92 | 1020.8 | |
| 20260504080712 | 37 | 0.0 | 0.0 | 0.07 | 0.29 | 0.01 | 92 | 1020.8 | |
| 20260504050713 | 39 | 0.0 | 0.0 | 0.02 | 0.14 | 0.14 | 90 | 1020.8 | |
| 20260504045712 | 39 | 0.0 | 0.0 | 0.03 | 0.14 | 0.14 | 90 | 1020.8 | |
| 20260504044712 | 39 | 0.0 | 0.0 | 0.04 | 0.14 | 0.14 | 90 | 1020.5 | |
| 20260504043712 | 39 | 0.0 | 0.0 | 0.04 | 0.14 | 0.14 | 89 | 1020.8 | |
| 20260504042713 | 40 | 0.0 | 0.0 | 0.03 | 0.13 | 0.13 | 89 | 1020.8 | |
| 20260504041712 | 40 | 0.0 | 0.0 | 0.03 | 0.12 | 0.12 | 89 | 1020.8 | |
| 20260504040712 | 40 | 0.0 | 0.0 | 0.04 | 0.12 | 0.12 | 89 | 1020.8 | |
| 20260504035712 | 40 | 0.0 | 0.0 | 0.03 | 0.11 | 0.11 | 89 | 1020.8 | |
| 20260504034712 | 40 | 0.0 | 0.0 | 0.02 | 0.10 | 0.10 | 89 | 1020.8 | |
| 20260504033713 | 40 | 0.0 | 0.0 | 0.04 | 0.10 | 0.10 | 89 | 1020.8 | |
| 20260504032713 | 40 | 0.0 | 0.0 | 0.04 | 0.10 | 0.10 | 89 | 1020.8 | |
| 20260504031713 | 40 | 0.0 | 0.0 | 0.03 | 0.09 | 0.09 | 88 | 1020.8 | |
| 20260504030713 | 40 | 0.0 | 0.0 | 0.04 | 0.08 | 0.08 | 88 | 1021.0 | |
| 20260504025712 | 40 | 0.0 | 0.0 | 0.04 | 0.08 | 0.08 | 88 | 1020.8 | |
| 20260504024713 | 41 | 0.0 | 0.0 | 0.04 | 0.08 | 0.08 | 88 | 1020.8 | |
| 20260504023713 | 41 | 0.0 | 0.0 | 0.04 | 0.06 | 0.06 | 88 | 1020.8 | |
| 20260504022712 | 41 | 0.0 | 0.0 | 0.04 | 0.06 | 0.06 | 88 | 1020.8 | |
| 20260504021713 | 41 | 0.0 | 0.0 | 0.04 | 0.06 | 0.06 | 88 | 1020.8 | |
| 20260504020733 | 41 | 0.0 | 0.0 | 0.02 | 0.04 | 0.04 | 88 | 1020.8 | |
| 20260504015713 | 41 | 0.0 | 0.0 | 0.02 | 0.04 | 0.04 | 88 | 1021.1 | |
| 20260504014713 | 42 | 0.0 | 0.0 | 0.03 | 0.04 | 0.04 | 88 | 1021.1 | |
| 20260504013712 | 42 | 0.0 | 0.0 | 0.01 | 0.02 | 0.02 | 87 | 1021.1 | |
| 20260504012712 | 42 | 45 | 0.0 | 1.0 | 0.02 | 0.02 | 0.02 | 87 | 1021.1 |
| 20260504011712 | 43 | 0.0 | 0.0 | 0.02 | 0.02 | 0.02 | 87 | 1021.1 | |
| 20260504010712 | 43 | 315 | 0.0 | 1.0 | 0.02 | 0.02 | 0.02 | 86 | 1021.1 |
| 20260504005734 | 43 | 0.0 | 0.0 | 0.02 | 0.02 | 0.02 | 85 | 1021.1 | |
| 20260504004714 | 44 | 0.0 | 0.0 | 0.01 | 0.01 | 0.01 | 84 | 1021.1 | |
| 20260504003713 | 44 | 0.0 | 0.0 | 0.01 | 0.01 | 0.01 | 83 | 1021.2 |